Tracking 20475 objects as of 27-Feb-2020
HD Live streaming from Space Station
objects crossing your sky now

GORIZONT 31

Track GORIZONT 31 now!
GORIZONT 31 is classified as:


NORAD ID: 23775
Int'l Code: 1996-005A
Perigee: 35,837.9 km
Apogee: 35,968.3 km
Inclination: 14.5 °
Period: 1,441.7 minutes
Semi major axis: 42274 km
RCS: 12.5892 m2 (large)
Launch date: January 25, 1996
Source: Commonwealth of Independent States (former USSR) (CIS)
Launch site: TYURATAM MISSILE AND SPACE COMPLEX (TTMTR)

Telecommunications; telephone and television communications to the Russian republic.
aabbcc
Your satellite tracking list
Your tracking list is empty




NASA's NSSDC Master Catalog

Two Line Element Set (TLE):
1 23775U 96005A   20057.95257993  .00000086  00000-0  00000+0 0  9990
2 23775  14.4761  12.5969 0015428 188.9693 354.5914  0.99882870 88047
Source of the keplerian elements: AFSPC